ZL1TQN Weather Reports


Display with metric or nautical units.
time (UTC)temp
F
wind
direction
speed
MPH
gust
MPH
rain 1hr
in
rain 24hr
in
rain mn
in
humidity
%
barometer
mb
20260831132005 54 216 11.0 20.0 0.00 0.00 0.00 74 1008.3
20260831131504 53 248 7.0 14.0 0.00 0.00 0.00 74 1008.2
20260831130004 53 281 5.0 13.0 0.00 0.00 0.00 74 1007.7
20260831125504 53 266 4.0 13.0 0.00 0.00 0.00 74 1007.7
20260831125004 54 276 9.0 17.0 0.00 0.00 0.00 73 1007.8
20260831124504 54 244 7.0 20.0 0.00 0.00 0.00 72 1007.8
20260831124004 54 253 12.0 20.0 0.00 0.00 0.00 72 1007.8
20260831123504 53 253 9.0 16.0 0.00 0.00 0.00 73 1007.7
20260831123004 54 264 7.0 20.0 0.00 0.00 0.00 72 1007.7
20260831122504 54 233 11.0 20.0 0.00 0.00 0.00 72 1007.7
20260831122004 54 267 12.0 18.0 0.00 0.00 0.00 72 1007.7
20260831121504 54 275 8.0 21.0 0.00 0.00 0.00 72 1007.6
20260831121005 54 259 7.0 21.0 0.00 0.00 0.00 71 1007.6
20260831120004 54 259 8.0 20.0 0.00 0.00 0.00 71 1007.7
20260831115504 54 262 12.0 20.0 0.00 0.00 0.00 70 1007.7
20260831115004 54 236 9.0 20.0 0.00 0.00 0.00 71 1007.7
20260831114504 54 276 10.0 20.0 0.00 0.00 0.00 71 1007.6
20260831114004 54 263 14.0 23.0 0.00 0.00 0.00 71 1007.7
20260831113504 54 236 12.0 23.0 0.00 0.00 0.00 71 1007.7
20260831113004 54 246 9.0 22.0 0.00 0.00 0.00 71 1007.7
20260831112505 54 275 10.0 23.0 0.00 0.00 0.00 70 1007.7
20260831112005 54 270 15.0 25.0 0.00 0.00 0.00 71 1007.4
20260831111505 54 230 12.0 25.0 0.00 0.00 0.00 71 1007.3
20260831111005 54 255 13.0 23.0 0.00 0.00 0.00 71 1007.2
20260831110004 54 265 12.0 25.0 0.00 0.00 0.00 71 1007.2
20260831105504 54 247 14.0 26.0 0.00 0.00 0.00 72 1007.0
20260831105005 54 268 16.0 26.0 0.00 0.00 0.00 72 1007.2
20260831104504 54 264 12.0 28.0 0.00 0.00 0.00 72 1007.2
20260831104004 54 257 13.0 28.0 0.00 0.00 0.00 72 1007.2
20260831103504 54 253 12.0 25.0 0.00 0.00 0.00 71 1007.3
20260831103004 54 247 11.0 26.0 0.00 0.00 0.00 72 1007.4
20260831102004 54 261 9.0 22.0 0.00 0.00 0.00 73 1007.3
20260831101504 54 267 11.0 22.0 0.00 0.00 0.00 73 1007.2
20260831101004 54 257 10.0 20.0 0.00 0.00 0.00 72 1007.2
20260831100004 54 250 9.0 18.0 0.00 0.00 0.00 72 1006.8
20260831095504 54 256 9.0 20.0 0.00 0.00 0.00 72 1006.8
20260831095004 54 256 12.0 20.0 0.00 0.00 0.00 72 1006.8
20260831094504 54 264 6.0 22.0 0.00 0.00 0.00 73 1006.8
20260831094004 54 273 6.0 22.0 0.00 0.00 0.00 73 1006.8
20260831093504 54 270 5.0 16.0 0.00 0.00 0.00 73 1006.8
20260831093004 54 260 6.0 16.0 0.00 0.00 0.00 73 1006.8
20260831091004 54 284 4.0 22.0 0.00 0.00 0.00 73 1006.7
20260831090004 54 260 5.0 15.0 0.00 0.00 0.00 72 1006.7
20260831085004 55 222 7.0 14.0 0.00 0.00 0.00 72 1006.6
20260831083504 55 279 3.0 16.0 0.00 0.00 0.00 71 1006.2
20260831083005 55 272 6.0 16.0 0.00 0.00 0.00 71 1006.3
20260831082506 54 250 5.0 16.0 0.00 0.00 0.00 71 1006.2
20260831082006 55 38 1.0 10.0 0.00 0.00 0.00 71 1006.2
20260831081505 55 261 2.0 14.0 0.00 0.00 0.00 71 1006.2
20260831081005 55 244 6.0 14.0 0.00 0.00 0.00 71 1006.0
20260831080005 55 292 5.0 13.0 0.00 0.00 0.00 71 1005.9
20260831075505 55 244 6.0 13.0 0.00 0.00 0.00 71 1006.1
20260831075005 55 243 8.0 18.0 0.00 0.00 0.00 71 1006.2
20260831074505 56 101 1.0 23.0 0.00 0.00 0.00 70 1006.1
20260831073506 56 254 10.0 32.0 0.00 0.00 0.00 70 1005.7
20260831073006 56 258 16.0 32.0 0.00 0.00 0.00 69 1005.6
20260831072505 56 274 12.0 26.0 0.00 0.00 0.00 70 1005.7
20260831072006 56 252 10.0 26.0 0.00 0.00 0.00 70 1005.6
20260831071505 56 256 5.0 25.0 0.00 0.00 0.00 71 1005.3
20260831071005 56 273 10.0 25.0 0.00 0.00 0.00 71 1005.6
20260831070006 56 269 6.0 14.0 0.00 0.00 0.00 73 1005.3
20260831065006 56 226 5.0 20.0 0.00 0.00 0.00 74 1005.5
20260831064505 56 243 3.0 20.0 0.00 0.00 0.00 75 1005.3
20260831064005 56 261 5.0 20.0 0.00 0.00 0.00 76 1005.2
20260831063505 55 317 9.0 15.0 0.00 0.00 0.00 76 1005.0
20260831063006 55 269 4.0 15.0 0.00 0.00 0.00 78 1005.1
20260831062506 56 294 6.0 15.0 0.00 0.00 0.00 78 1005.1
20260831062006 56 286 8.0 16.0 0.00 0.00 0.00 78 1005.2
20260831061505 55 308 8.0 16.0 0.00 0.00 0.00 80 1005.2
20260831061005 55 274 9.0 22.0 0.00 0.00 0.00 81 1005.7
20260831060006 57 270 8.0 21.0 0.00 0.00 0.00 76 1005.6
20260831055505 57 261 14.0 21.0 0.00 0.00 0.00 74 1005.6
20260831055005 57 264 10.0 23.0 0.00 0.00 0.00 74 1005.5
20260831054506 57 261 12.0 23.0 0.00 0.00 0.00 73 1005.2
20260831054005 57 257 10.0 20.0 0.00 0.00 0.00 74 1005.2
20260831053505 57 276 9.0 17.0 0.00 0.00 0.00 74 1005.0
20260831053005 57 257 11.0 17.0 0.00 0.00 0.00 75 1004.9
20260831052005 57 252 10.0 21.0 0.00 0.00 0.00 75 1005.0
20260831051505 57 259 10.0 21.0 0.00 0.00 0.00 75 1004.9
20260831051006 57 284 10.0 21.0 0.00 0.00 0.00 74 1004.9
20260831045506 57 259 13.0 24.0 0.00 0.00 0.00 76 1004.9
20260831045005 57 250 7.0 21.0 0.00 0.00 0.00 78 1004.9
20260831044505 57 255 8.0 21.0 0.00 0.00 0.00 77 1004.9
20260831044006 57 264 13.0 20.0 0.00 0.00 0.00 77 1005.0
20260831043506 57 250 9.0 23.0 0.00 0.00 0.00 76 1004.9
20260831043005 58 267 13.0 23.0 0.00 0.00 0.00 75 1004.7
20260831042505 58 258 10.0 26.0 0.00 0.00 0.00 73 1004.8
20260831042005 59 261 13.0 30.0 0.00 0.00 0.00 71 1004.7
20260831041505 59 260 17.0 30.0 0.00 0.00 0.00 70 1004.6
20260831041006 59 255 19.0 30.0 0.00 0.00 0.00 70 1004.5
20260831040005 60 267 13.0 21.0 0.00 0.00 0.00 70 1004.6
20260831035505 60 264 12.0 26.0 0.00 0.00 0.00 70 1004.6
20260831035005 60 258 17.0 26.0 0.00 0.00 0.00 71 1004.6
20260831034505 60 251 17.0 26.0 0.00 0.00 0.00 70 1004.6
20260831034005 61 249 12.0 33.0 0.00 0.00 0.00 70 1004.5
20260831033005 60 256 21.0 33.0 0.00 0.00 0.00 69 1004.5
20260831032505 61 266 17.0 29.0 0.00 0.00 0.00 68 1004.4
20260831032005 61 263 17.0 29.0 0.00 0.00 0.00 68 1004.2
20260831031505 61 266 16.0 28.0 0.00 0.00 0.00 68 1004.1
20260831031005 61 262 14.0 25.0 0.00 0.00 0.00 69 1004.1
20260831030006 61 257 13.0 25.0 0.00 0.00 0.00 71 1004.3
20260831025505 60 263 16.0 23.0 0.00 0.00 0.00 71 1004.5
20260831025005 61 264 12.0 24.0 0.00 0.00 0.00 73 1004.6
20260831024505 61 226 12.0 25.0 0.00 0.00 0.00 74 1004.6
20260831024005 61 258 12.0 25.0 0.00 0.00 0.00 73 1004.7
20260831023505 61 259 7.0 21.0 0.00 0.00 0.00 74 1004.6
20260831022505 60 285 11.0 21.0 0.00 0.00 0.00 74 1004.7
20260831021505 59 267 13.0 23.0 0.00 0.00 0.00 76 1005.1
20260831021005 60 278 13.0 23.0 0.00 0.00 0.00 73 1005.2
20260831020005 61 283 12.0 24.0 0.00 0.00 0.00 70 1005.2
20260831015505 61 258 12.0 24.0 0.00 0.00 0.00 71 1005.2
20260831015005 61 251 10.0 20.0 0.00 0.00 0.00 71 1005.5
20260831014505 61 256 6.0 16.0 0.00 0.00 0.00 75 1005.5
20260831014005 60 281 6.0 16.0 0.00 0.00 0.00 76 1005.6
20260831013006 59 266 6.0 16.0 0.00 0.00 0.00 81 1005.7
20260831012505 58 291 7.0 20.0 0.00 0.00 0.00 82 1005.7
20260831012005 57 281 9.0 23.0 0.00 0.00 0.00 82 1005.7
20260831011505 57 257 10.0 23.0 0.00 0.00 0.00 82 1005.9
20260831011005 58 257 12.0 22.0 0.00 0.00 0.00 79 1006.1
20260831010005 59 270 7.0 18.0 0.00 0.00 0.00 74 1006.2
20260831005005 59 264 10.0 21.0 0.00 0.00 0.00 72 1006.2
20260831004506 60 245 12.0 21.0 0.00 0.00 0.00 70 1006.2
20260831004005 60 263 12.0 22.0 0.00 0.00 0.00 68 1006.2
20260831003505 60 266 12.0 26.0 0.00 0.00 0.00 67 1006.2
20260831002505 61 279 10.0 22.0 0.00 0.00 0.00 66 1006.2
20260831002005 61 252 12.0 31.0 0.00 0.00 0.00 66 1006.2
20260831001005 61 284 9.0 18.0 0.00 0.00 0.00 72 1006.3
20260831000005 61 284 9.0 20.0 0.00 0.00 0.00 71 1006.5
20260830235005 60 268 9.0 20.0 0.00 0.00 0.00 73 1006.7
20260830234505 60 254 13.0 20.0 0.00 0.00 0.00 71 1006.5
20260830234005 60 258 12.0 26.0 0.00 0.00 0.00 71 1006.6
20260830233505 59 229 12.0 26.0 0.00 0.00 0.00 71 1006.5
20260830233004 59 259 11.0 24.0 0.00 0.00 0.00 71 1006.6
20260830232504 60 257 12.0 20.0 0.00 0.00 0.00 69 1006.5
20260830232005 60 268 9.0 20.0 0.00 0.00 0.00 69 1006.4
20260830231506 60 262 12.0 20.0 0.00 0.00 0.00 67 1006.6
20260830231005 60 278 5.0 17.0 0.00 0.00 0.00 68 1006.6
20260830230004 60 259 12.0 20.0 0.00 0.00 0.00 68 1006.7
20260830225505 60 250 9.0 16.0 0.00 0.00 0.00 70 1006.7
20260830225005 60 262 7.0 16.0 0.00 0.00 0.00 70 1006.8
20260830224005 59 260 7.0 18.0 0.00 0.00 0.00 71 1007.1
20260830223505 59 267 9.0 21.0 0.00 0.00 0.00 70 1007.1
20260830223005 59 259 9.0 23.0 0.00 0.00 0.00 70 1006.9
20260830222005 59 265 13.0 23.0 0.00 0.00 0.00 67 1007.3
20260830221504 59 269 14.0 21.0 0.00 0.00 0.00 67 1007.3
20260830221005 58 243 8.0 17.0 0.00 0.00 0.00 69 1007.3
20260830220004 58 272 6.0 20.0 0.00 0.00 0.00 69 1007.3
20260830215505 58 245 10.0 20.0 0.00 0.00 0.00 69 1007.3
20260830215005 58 246 10.0 20.0 0.00 0.00 0.00 69 1007.3
20260830214504 58 254 7.0 21.0 0.00 0.00 0.00 70 1007.3
20260830214005 58 280 8.0 21.0 0.00 0.00 0.00 70 1007.3
20260830213505 58 250 7.0 20.0 0.00 0.00 0.00 71 1007.3
20260830213004 57 257 8.0 17.0 0.00 0.00 0.00 72 1007.3
20260830212504 57 261 9.0 17.0 0.00 0.00 0.00 73 1007.5
20260830212005 57 265 6.0 18.0 0.00 0.00 0.00 72 1007.4
20260830211005 57 274 10.0 18.0 0.00 0.00 0.00 72 1007.4
20260830210004 57 265 11.0 17.0 0.00 0.00 0.00 71 1007.4
20260830205505 57 267 5.0 12.0 0.00 0.00 0.00 73 1007.3
20260830205005 57 243 3.0 17.0 0.00 0.00 0.00 74 1007.3
20260830204504 56 247 9.0 17.0 0.00 0.00 0.00 72 1007.3
20260830204005 56 269 6.0 14.0 0.00 0.00 0.00 74 1007.3
20260830203005 56 271 3.0 12.0 0.00 0.00 0.00 77 1007.3
20260830202504 55 250 4.0 12.0 0.00 0.00 0.00 77 1007.5
20260830202004 55 282 2.0 7.0 0.00 0.00 0.00 77 1007.4
20260830201504 55 263 4.0 8.0 0.00 0.00 0.00 77 1007.3
20260830201005 55 282 4.0 9.0 0.00 0.00 0.00 78 1007.3
20260830200005 55 276 6.0 23.0 0.00 0.00 0.00 77 1007.3
20260830195505 55 279 8.0 14.0 0.00 0.00 0.00 77 1007.3
20260830194504 54 299 7.0 13.0 0.00 0.00 0.00 77 1007.2
20260830193505 53 275 5.0 13.0 0.00 0.00 0.00 78 1007.2
20260830192504 53 267 7.0 13.0 0.00 0.00 0.00 78 1007.3
20260830192005 53 281 5.0 12.0 0.00 0.00 0.00 78 1007.3
20260830191005 54 262 5.0 12.0 0.00 0.00 0.00 77 1007.3
20260830190005 53 257 5.0 12.0 0.00 0.00 0.00 77 1007.2
20260830185504 54 263 6.0 12.0 0.00 0.00 0.00 77 1007.1
20260830185004 54 270 7.0 13.0 0.00 0.00 0.00 77 1007.1
20260830184504 53 264 7.0 13.0 0.00 0.00 0.00 77 1007.1
20260830184006 53 263 6.0 14.0 0.00 0.00 0.00 77 1007.0
20260830183505 53 263 7.0 14.0 0.00 0.00 0.00 77 1006.9
20260830182505 53 252 7.0 15.0 0.00 0.00 0.00 77 1006.7
20260830182005 53 262 6.0 12.0 0.00 0.00 0.00 76 1006.7
20260830181505 53 266 5.0 10.0 0.00 0.00 0.00 76 1006.7
20260830181005 53 252 3.0 8.0 0.00 0.00 0.00 76 1006.5
20260830180004 53 284 4.0 9.0 0.00 0.00 0.00 76 1006.4
20260830175504 53 277 4.0 9.0 0.00 0.00 0.00 76 1006.3
20260830175005 53 266 3.0 12.0 0.00 0.00 0.00 76 1006.2
20260830174505 54 264 4.0 13.0 0.00 0.00 0.00 76 1006.2
20260830174004 53 255 8.0 13.0 0.00 0.00 0.00 76 1006.2
20260830173504 53 271 3.0 13.0 0.00 0.00 0.00 76 1006.1
20260830173004 53 290 3.0 7.0 0.00 0.00 0.00 76 1005.9
20260830172504 54 268 3.0 7.0 0.00 0.00 0.00 76 1005.8
20260830172004 54 272 2.0 12.0 0.00 0.00 0.00 75 1005.7
20260830171505 54 269 3.0 13.0 0.00 0.00 0.00 75 1005.8
20260830171005 54 273 5.0 13.0 0.00 0.00 0.00 75 1005.7
20260830170005 54 223 5.0 13.0 0.00 0.00 0.00 75 1005.7
20260830165505 54 243 5.0 15.0 0.00 0.00 0.00 74 1005.7
20260830165004 54 250 8.0 15.0 0.00 0.00 0.00 74 1005.7
20260830164504 54 277 6.0 13.0 0.00 0.00 0.00 74 1005.7
20260830164004 54 234 6.0 13.0 0.00 0.00 0.00 75 1005.7
20260830163505 54 269 5.0 13.0 0.00 0.00 0.00 74 1005.6
20260830163004 54 274 6.0 12.0 0.00 0.00 0.00 75 1005.6
20260830162505 55 271 5.0 14.0 0.00 0.00 0.00 75 1005.6
20260830162005 55 251 8.0 14.0 0.00 0.00 0.00 75 1005.5
20260830161504 55 269 2.0 10.0 0.00 0.00 0.00 75 1005.6
20260830161005 55 279 2.0 12.0 0.00 0.00 0.00 75 1005.5
20260830160004 55 277 3.0 10.0 0.00 0.00 0.00 75 1005.2
20260830155504 55 260 5.0 10.0 0.00 0.00 0.00 74 1005.2
20260830154504 55 253 6.0 13.0 0.00 0.00 0.00 74 1005.2
20260830153504 55 265 5.0 12.0 0.00 0.00 0.00 74 1005.4
20260830153004 55 278 2.0 12.0 0.00 0.00 0.00 74 1005.6
20260830152505 55 278 6.0 13.0 0.00 0.00 0.00 73 1005.6
20260830152004 55 235 6.0 13.0 0.00 0.00 0.00 73 1005.6
20260830151504 55 325 3.0 13.0 0.00 0.00 0.00 74 1005.6
20260830151005 55 249 3.0 13.0 0.00 0.00 0.00 74 1005.7
20260830150004 55 279 6.0 13.0 0.00 0.00 0.00 74 1005.6
20260830145505 55 262 7.0 13.0 0.00 0.00 0.00 73 1005.6
20260830144005 55 227 5.0 16.0 0.00 0.00 0.00 74 1005.3
20260830143504 55 258 6.0 17.0 0.00 0.00 0.00 75 1005.3
20260830142504 55 249 3.0 16.0 0.00 0.00 0.00 75 1005.2
20260830141004 55 281 3.0 12.0 0.00 0.00 0.00 75 1005.1
20260830140004 55 266 7.0 17.0 0.00 0.00 0.00 74 1004.9
20260830135504 55 236 9.0 17.0 0.00 0.00 0.00 75 1004.8
20260830135005 55 257 12.0 16.0 0.00 0.00 0.00 75 1004.6
20260830134505 55 263 6.0 13.0 0.00 0.00 0.00 76 1004.6
20260830134005 55 263 7.0 17.0 0.00 0.01 0.00 75 1004.5
20260830133505 55 252 7.0 17.0 0.00 0.01 0.00 75 1004.6
20260830133005 55 259 5.0 17.0 0.00 0.01 0.00 75 1004.6
20260830132504 55 233 10.0 17.0 0.00 0.01 0.00 75 1004.6